Satellite: NOAA-10 Catalog number: 16969 Epoch time: 11139.54128584 Element set: 505 Inclination: 098.6192 deg RA of node: 169.7147 deg Eccentricity: 0.0011813 Arg of perigee: 313.3230 deg Mean anomaly: 046.6967 deg Mean motion: 14.27461013 rev/day Decay rate: 5.7e-07 rev/day^2 Epoch rev: 28356 Checksum: 307
Satellite: NOAA-11 Catalog number: 19531 Epoch time: 11139.41939656 Element set: 507 Inclination: 098.7518 deg RA of node: 227.4261 deg Eccentricity: 0.0010382 Arg of perigee: 271.2972 deg Mean anomaly: 088.6974 deg Mean motion: 14.14916048 rev/day Decay rate: 6.4e-07 rev/day^2 Epoch rev: 16868 Checksum: 327
Satellite: NOAA-12 Catalog number: 21263 Epoch time: 11139.52334580 Element set: 2 Inclination: 098.7503 deg RA of node: 157.4173 deg Eccentricity: 0.0011396 Arg of perigee: 272.0245 deg Mean anomaly: 087.9629 deg Mean motion: 14.25711211 rev/day Decay rate: 8.2e-07 rev/day^2 Epoch rev: 4032 Checksum: 262
Satellite: MET-3/5 Catalog number: 21655 Epoch time: 11138.81002557 Element set: 113 Inclination: 082.5574 deg RA of node: 071.5287 deg Eccentricity: 0.0012307 Arg of perigee: 227.3584 deg Mean anomaly: 132.6491 deg Mean motion: 13.17026704 rev/day Decay rate: 5.1e-07 rev/day^2 Epoch rev: 94985 Checksum: 288
Satellite: MET-2/21 Catalog number: 22782 Epoch time: 11138.75276301 Element set: 0099 Inclination: 082.5478 deg RA of node: 346.2350 deg Eccentricity: 0.0022265 Arg of perigee: 177.8133 deg Mean anomaly: 182.3130 deg Mean motion: 13.83657652 rev/day Decay rate: 1.8e-07 rev/day^2 Epoch rev: 89448 Checksum: 310
Satellite: OKEAN-4 Catalog number: 23317 Epoch time: 11138.95020010 Element set: 0596 Inclination: 082.5431 deg RA of node: 040.4396 deg Eccentricity: 0.0020771 Arg of perigee: 211.8085 deg Mean anomaly: 148.1877 deg Mean motion: 14.83062230 rev/day Decay rate: 3.57e-06 rev/day^2 Epoch rev: 89621 Checksum: 278
Satellite: NOAA-14 Catalog number: 23455 Epoch time: 11139.44468000 Element set: 487 Inclination: 098.8531 deg RA of node: 222.3654 deg Eccentricity: 0.0009749 Arg of perigee: 006.9207 deg Mean anomaly: 353.2098 deg Mean motion: 14.13818552 rev/day Decay rate: -1.9e-07 rev/day^2 Epoch rev: 84501 Checksum: 303
Satellite: NOAA-15 Catalog number: 25338 Epoch time: 11139.37522567 Element set: 819 Inclination: 098.6513 deg RA of node: 125.9144 deg Eccentricity: 0.0010781 Arg of perigee: 171.0312 deg Mean anomaly: 189.1087 deg Mean motion: 14.24913690 rev/day Decay rate: 2.8e-07 rev/day^2 Epoch rev: 67662 Checksum: 308
Satellite: RESURS Catalog number: 25394 Epoch time: 11139.58452141 Element set: 799 Inclination: 098.3003 deg RA of node: 144.1835 deg Eccentricity: 0.0001560 Arg of perigee: 000.4924 deg Mean anomaly: 359.6251 deg Mean motion: 14.24233442 rev/day Decay rate: 1.8e-07 rev/day^2 Epoch rev: 66823 Checksum: 277
Satellite: FENGYUN1 Catalog number: 25730 Epoch time: 11139.90103145 Element set: 328 Inclination: 098.8171 deg RA of node: 101.7212 deg Eccentricity: 0.0026022 Arg of perigee: 031.4499 deg Mean anomaly: 328.8207 deg Mean motion: 14.08608964 rev/day Decay rate: 6.0e-08 rev/day^2 Epoch rev: 61908 Checksum: 276
Satellite: OKEAN-0 Catalog number: 25860 Epoch time: 11138.96753678 Element set: 0311 Inclination: 097.8806 deg RA of node: 106.2211 deg Eccentricity: 0.0001922 Arg of perigee: 075.9184 deg Mean anomaly: 284.2236 deg Mean motion: 14.73780306 rev/day Decay rate: 2.51e-06 rev/day^2 Epoch rev: 63635 Checksum: 297
Satellite: NOAA-16 Catalog number: 26536 Epoch time: 11139.32018692 Element set: 301 Inclination: 099.1402 deg RA of node: 169.2735 deg Eccentricity: 0.0011455 Arg of perigee: 112.3802 deg Mean anomaly: 247.8572 deg Mean motion: 14.12617590 rev/day Decay rate: -1.10e-06 rev/day^2 Epoch rev: 54928 Checksum: 282
Satellite: NOAA-17 Catalog number: 27453 Epoch time: 11139.44350181 Element set: 294 Inclination: 098.3806 deg RA of node: 180.4697 deg Eccentricity: 0.0010925 Arg of perigee: 230.5348 deg Mean anomaly: 129.4875 deg Mean motion: 14.24272343 rev/day Decay rate: 1.23e-06 rev/day^2 Epoch rev: 46256 Checksum: 303
Satellite: NOAA-18 Catalog number: 28654 Epoch time: 11139.46168584 Element set: 774 Inclination: 098.9941 deg RA of node: 090.5419 deg Eccentricity: 0.0014171 Arg of perigee: 182.3427 deg Mean anomaly: 177.7671 deg Mean motion: 14.11473892 rev/day Decay rate: -4.5e-07 rev/day^2 Epoch rev: 30887 Checksum: 341
Satellite: NOAA-19 Catalog number: 33591 Epoch time: 11139.45258566 Element set: 965 Inclination: 098.8257 deg RA of node: 080.0921 deg Eccentricity: 0.0014997 Arg of perigee: 059.5012 deg Mean anomaly: 300.7622 deg Mean motion: 14.11167686 rev/day Decay rate: 4.03e-06 rev/day^2 Epoch rev: 11733 Checksum: 311
/EX SB KEPS @ AMSAT $ORB11139.M Orbital Elements 11139.MISC
HR AMSAT ORBITAL ELEMENTS FOR MANNED AND MISCELLANEOUS SATELLITES FROM WA5QGD FORT WORTH,TX May 19, 2011 Send Subscribe/unsubscribe to KEPS at http://www.amsat.org/mailman/listinfo/keps BID: ORB11139.M TO ALL RADIO AMATEURS BT
Satellite: HUBBLE Catalog number: 20580 Epoch time: 11138.47037934 Element set: 767 Inclination: 028.4697 deg RA of node: 210.5697 deg Eccentricity: 0.0003782 Arg of perigee: 166.1084 deg Mean anomaly: 193.9499 deg Mean motion: 15.01357299 rev/day Decay rate: 9.26e-06 rev/day^2 Epoch rev: 95518 Checksum: 338
Satellite: ISS Catalog number: 25544 Epoch time: 11139.85304498 Element set: 384 Inclination: 051.6494 deg RA of node: 306.1741 deg Eccentricity: 0.0003396 Arg of perigee: 292.0861 deg Mean anomaly: 209.4882 deg Mean motion: 15.75273061 rev/day Decay rate: 6.5323e-04 rev/day^2 Epoch rev: 71644 Checksum: 309
Satellite: CO-58 Catalog number: 28895 Epoch time: 11138.66630044 Element set: 0877 Inclination: 097.9699 deg RA of node: 016.1900 deg Eccentricity: 0.0016795 Arg of perigee: 316.3398 deg Mean anomaly: 043.6490 deg Mean motion: 14.60096761 rev/day Decay rate: 4.85e-06 rev/day^2 Epoch rev: 29593 Checksum: 358
Satellite: FALCON Catalog number: 30776 Epoch time: 11138.51510848 Element set: 0102 Inclination: 035.4324 deg RA of node: 167.3906 deg Eccentricity: 0.0001109 Arg of perigee: 231.7096 deg Mean anomaly: 128.3522 deg Mean motion: 15.04581626 rev/day Decay rate: 1.582e-05 rev/day^2 Epoch rev: 23057 Checksum: 266
Satellite: MAST Catalog number: 31126 Epoch time: 11138.92099533 Element set: 0162 Inclination: 097.8964 deg RA of node: 167.7967 deg Eccentricity: 0.0092949 Arg of perigee: 261.6267 deg Mean anomaly: 097.4389 deg Mean motion: 14.53742299 rev/day Decay rate: 2.03e-06 rev/day^2 Epoch rev: 21683 Checksum: 345
Satellite: CAPE1 Catalog number: 31130 Epoch time: 11138.60434546 Element set: 178 Inclination: 097.9009 deg RA of node: 164.3093 deg Eccentricity: 0.0101298 Arg of perigee: 273.5097 deg Mean anomaly: 085.4520 deg Mean motion: 14.52382693 rev/day Decay rate: 1.02e-06 rev/day^2 Epoch rev: 21634 Checksum: 280
Satellite: COMPASS Catalog number: 32787 Epoch time: 11138.64636906 Element set: 0991 Inclination: 097.8494 deg RA of node: 203.0096 deg Eccentricity: 0.0014418 Arg of perigee: 273.6845 deg Mean anomaly: 086.2722 deg Mean motion: 14.82389739 rev/day Decay rate: 7.55e-06 rev/day^2 Epoch rev: 16518 Checksum: 342
Satellite: AAUSAT2 Catalog number: 32788 Epoch time: 11138.68125120 Element set: 0980 Inclination: 097.8499 deg RA of node: 203.2585 deg Eccentricity: 0.0014132 Arg of perigee: 274.4829 deg Mean anomaly: 085.4802 deg Mean motion: 14.82574964 rev/day Decay rate: 1.323e-05 rev/day^2 Epoch rev: 16520 Checksum: 312
Satellite: DO-64 Catalog number: 32789 Epoch time: 11138.76744715 Element set: 0999 Inclination: 097.8589 deg RA of node: 204.2917 deg Eccentricity: 0.0014136 Arg of perigee: 270.6767 deg Mean anomaly: 089.2801 deg Mean motion: 14.83017431 rev/day Decay rate: 1.915e-05 rev/day^2 Epoch rev: 16522 Checksum: 343
Satellite: CO-66 Catalog number: 32791 Epoch time: 11138.65691929 Element set: 0984 Inclination: 097.8508 deg RA of node: 202.9721 deg Eccentricity: 0.0014383 Arg of perigee: 270.8677 deg Mean anomaly: 089.0853 deg Mean motion: 14.82088583 rev/day Decay rate: 9.72e-06 rev/day^2 Epoch rev: 16513 Checksum: 356
Satellite: RS-30 Catalog number: 32953 Epoch time: 11139.65447805 Element set: 743 Inclination: 082.5021 deg RA of node: 180.4604 deg Eccentricity: 0.0020495 Arg of perigee: 089.2596 deg Mean anomaly: 271.0835 deg Mean motion: 12.43012694 rev/day Decay rate: 1.0e-07 rev/day^2 Epoch rev: 13554 Checksum: 281
Satellite: TACSAT-3 Catalog number: 35001 Epoch time: 11139.87820983 Element set: 594 Inclination: 040.4552 deg RA of node: 344.5876 deg Eccentricity: 0.0023625 Arg of perigee: 354.8662 deg Mean anomaly: 005.1908 deg Mean motion: 15.48271702 rev/day Decay rate: 1.5858e-04 rev/day^2 Epoch rev: 11269 Checksum: 313
Satellite: PHARMSAT Catalog number: 35002 Epoch time: 11138.93559011 Element set: 0558 Inclination: 040.4729 deg RA of node: 347.9189 deg Eccentricity: 0.0025557 Arg of perigee: 354.4257 deg Mean anomaly: 005.6272 deg Mean motion: 15.47963544 rev/day Decay rate: 1.2900e-04 rev/day^2 Epoch rev: 11257 Checksum: 301
Satellite: HAWKSAT1 Catalog number: 35003 Epoch time: 11139.87161154 Element set: 622 Inclination: 040.4568 deg RA of node: 317.4912 deg Eccentricity: 0.0021750 Arg of perigee: 020.4076 deg Mean anomaly: 339.7599 deg Mean motion: 15.62494516 rev/day Decay rate: 6.0204e-04 rev/day^2 Epoch rev: 11299 Checksum: 287
Satellite: CP6 Catalog number: 35004 Epoch time: 11139.81375700 Element set: 625 Inclination: 040.4555 deg RA of node: 310.6484 deg Eccentricity: 0.0020424 Arg of perigee: 021.4153 deg Mean anomaly: 338.7510 deg Mean motion: 15.67835434 rev/day Decay rate: 8.7864e-04 rev/day^2 Epoch rev: 11305 Checksum: 277
